カタログに戻る

STARLINK-31466

運用中通信VLEO
NORAD 59420·PAYLOAD·🇺🇸 United States

打ち上げ Apr 5, 2024 から Cape Canaveral Space Force Station

Loading…

次のパス (今後24時間)

TLE

最新Source: CelesTrak SupGP

元期: Sep 15, 2026, 02:39 UTC

1 59420C 24064Y   26258.11090278 -.00022949  00000+0 -83100-3 0  2587
2 59420  43.0042  66.7780 0001762 271.5148 358.9614 15.27597569    16

AllMySatでSTARLINK-31466をリアルタイム追跡

Download on the App Store